GFSNW_700_spd_129.txt.gz
Wind_Speed
35 33 32 31 28 28 26 24 21 19 17 17 13 11 13 8 9 5 2 2 0 5 8 8 10 11 11 18 19 18 15 17 23 24 25 23 20 11 10 8 6 5 4 3
33 34 33 32 29 27 26 25 20 20 19 14 15 12 11 10 5 6 6 5 4 4 8 9 9 12 14 17 19 15 21 12 18 16 10 15 20 13 11 16 8 6 5 7
33 32 31 29 29 27 27 25 19 20 19 15 12 10 7 4 2 4 1 3 3 4 8 2 8 13 11 14 14 16 18 19 20 17 21 25 18 22 21 16 9 12 14 22
33 32 31 29 28 28 27 24 19 18 18 14 11 8 5 5 2 1 6 6 2 6 7 12 6 13 18 17 8 14 14 19 17 15 19 21 20 24 19 17 19 15 21 15
34 32 29 29 28 26 25 22 21 19 15 12 8 6 6 7 5 2 6 5 1 7 10 11 22 22 18 22 15 12 15 14 20 24 14 16 17 16 17 13 17 20 19 14
30 29 28 27 26 26 23 19 18 17 14 10 7 4 7 11 5 4 4 4 7 8 13 15 17 12 17 21 23 27 11 10 16 11 14 20 8 7 11 16 10 10 9 6
30 29 27 25 25 23 22 21 19 15 14 10 10 9 9 7 5 5 6 4 9 9 11 13 4 10 9 12 8 19 15 14 9 11 12 2 4 12 7 4 12 7 4 4
29 27 26 25 23 22 20 19 18 17 15 11 9 8 5 9 9 7 2 7 9 9 9 11 8 9 8 8 9 15 15 11 10 3 6 13 15 14 12 15 14 16 14 12
28 27 25 24 23 21 20 17 16 16 18 14 6 6 7 8 3 6 3 9 9 7 12 8 5 5 10 5 12 18 19 14 20 3 3 3 23 22 11 11 3 12 20 17
29 27 26 24 22 20 17 18 17 14 13 13 11 9 10 11 7 6 5 9 8 7 6 9 6 4 8 7 15 19 22 15 15 14 5 3 22 28 1 6 10 14 16 15
30 28 26 23 21 18 17 15 15 13 9 10 13 10 12 12 13 15 7 6 5 2 4 3 4 4 8 9 12 13 11 15 11 10 7 5 25 21 20 14 8 7 6 6
31 28 25 23 20 18 15 14 12 11 10 1 4 5 9 15 14 17 6 4 2 1 4 3 3 5 4 13 5 12 8 16 12 10 7 20 14 17 16 14 10 8 10 8
30 28 26 22 20 16 15 13 13 10 8 5 5 6 7 12 16 11 12 10 8 6 4 7 6 5 8 8 8 13 16 10 15 11 9 16 9 15 15 15 14 12 12 12
30 28 25 23 20 17 15 13 12 10 8 7 3 2 3 5 9 15 16 13 11 10 11 13 9 8 6 8 14 14 13 8 14 13 17 11 9 14 15 14 14 14 14 16
29 27 25 23 20 18 15 12 10 10 8 4 2 3 5 3 5 8 16 15 14 14 14 14 9 10 9 6 7 5 11 10 14 16 18 13 11 13 11 13 14 16 18 19
26 26 24 23 20 18 14 11 10 8 6 3 3 3 2 3 3 5 8 9 11 11 9 9 10 3 5 6 6 11 12 9 13 16 16 12 10 10 9 11 14 17 20 21
22 23 25 22 19 18 14 10 9 8 6 4 2 3 2 2 2 4 6 5 6 8 9 11 10 7 12 12 13 13 15 12 15 16 15 13 12 13 13 13 14 18 18 18
17 20 22 22 20 18 14 11 8 6 4 3 2 4 4 1 1 3 3 2 4 8 11 13 9 6 9 7 9 11 10 12 17 15 15 12 12 13 14 14 13 14 15 17
19 20 22 22 21 17 13 9 9 9 7 3 5 6 3 1 5 6 13 5 8 9 10 6 6 9 8 9 12 15 15 16 14 15 12 11 11 12 12 13 12 13 15 18
21 19 19 18 18 14 10 7 7 8 11 11 7 8 9 7 5 5 5 5 5 5 7 4 8 13 15 14 15 18 16 13 12 11 10 11 12 13 14 15 17 18 20 21
20 20 15 15 15 11 9 5 3 4 4 5 5 13 15 11 8 6 3 3 3 4 5 7 6 9 8 9 11 11 11 10 11 11 11 12 14 15 17 19 20 22 23 24
20 18 14 16 13 6 6 4 5 5 3 3 0 3 8 17 11 7 5 6 5 6 5 6 2 6 9 8 9 8 9 8 9 11 12 14 16 19 21 23 26 27 29 30
25 19 17 10 9 8 8 10 7 6 5 7 4 4 7 10 12 7 6 6 6 5 5 4 6 6 8 8 7 5 7 8 11 13 15 18 21 23 25 27 29 29 30 31
27 19 16 9 7 8 12 9 5 3 8 8 10 8 9 12 7 8 5 6 5 5 5 8 7 5 3 4 6 5 7 11 14 17 20 22 25 27 29 29 31 32 33 33
20 11 9 9 7 7 8 14 12 11 11 9 10 6 9 7 7 5 6 5 6 6 6 3 2 3 6 7 8 10 13 16 17 20 23 26 29 30 31 32 32 33 33 32
18 10 9 11 16 11 9 11 13 13 11 11 13 9 4 8 5 7 8 6 6 5 5 3 4 6 9 10 11 14 18 21 23 26 29 30 30 31 32 32 31 29 28 27
13 15 11 7 13 18 10 11 13 15 15 15 9 6 6 4 6 8 11 15 11 9 5 9 7 10 14 14 14 19 24 26 26 30 32 32 31 30 28 27 26 25 24 23

GFSNW_700_spd_132.txt.gz
Wind_Speed
43 38 34 38 37 34 33 31 25 27 23 21 21 19 16 12 9 8 8 7 10 8 7 6 3 6 8 13 14 15 11 12 17 25 19 9 11 14 7 5 7 7 9 4
39 35 40 40 36 37 34 31 25 25 26 19 24 20 15 12 10 10 5 5 5 3 3 4 5 4 8 14 16 12 13 7 12 13 1 7 14 17 13 15 11 10 4 13
30 37 40 37 37 36 36 31 23 29 28 21 22 19 15 12 11 9 6 6 5 6 7 7 6 11 8 15 14 9 10 9 10 12 18 19 22 21 19 17 10 17 19 27
33 40 38 38 36 34 33 32 24 27 29 22 21 16 11 13 9 7 13 8 9 7 4 5 6 9 12 8 7 6 11 17 16 17 16 16 14 16 18 18 14 14 20 18
42 38 37 39 38 35 33 31 29 27 25 21 18 14 12 11 9 7 11 12 6 4 3 6 12 14 9 10 12 16 15 16 18 20 15 9 16 15 9 12 11 11 1 7
37 37 35 34 31 31 33 27 29 25 26 21 16 14 15 13 7 7 9 9 8 5 4 7 8 1 4 8 10 14 13 13 13 10 11 12 3 12 11 7 13 11 14 11
36 34 34 36 32 32 30 24 24 25 23 19 15 12 9 9 8 8 12 4 2 4 6 7 6 1 3 8 12 17 14 12 8 10 8 2 9 13 6 8 13 9 6 8
37 34 32 31 30 30 29 24 22 22 21 17 14 10 8 12 12 16 9 6 1 2 3 9 5 2 1 3 5 14 12 10 7 3 5 2 16 17 20 11 12 10 12 14
33 34 34 31 29 28 25 21 21 21 21 16 10 8 13 19 17 12 7 4 2 2 5 5 3 3 3 2 3 10 7 12 8 7 3 1 18 23 11 6 6 13 14 13
33 31 28 28 27 24 22 21 20 18 17 16 13 13 17 14 13 13 12 6 3 1 2 5 3 2 1 2 7 13 18 7 14 12 3 1 19 20 7 5 9 13 13 14
32 30 27 26 24 22 22 21 20 18 13 13 12 10 10 12 13 14 9 7 7 3 2 3 2 2 1 3 5 9 9 9 8 6 4 4 24 15 13 12 9 10 12 11
29 28 26 24 23 21 20 20 18 17 12 9 9 8 7 6 7 13 11 9 6 5 3 3 0 2 2 5 1 6 4 9 7 6 4 12 15 13 14 10 10 10 12 13
28 27 26 23 21 20 19 20 18 15 15 11 10 9 6 5 11 11 15 10 7 5 3 2 3 2 6 3 3 6 9 5 8 8 8 18 12 13 12 10 11 12 12 12
29 27 25 23 21 19 18 17 16 15 13 9 10 6 4 5 8 17 17 14 10 8 8 8 9 7 7 6 7 10 4 5 7 8 12 14 7 11 9 9 10 12 13 15
28 27 25 23 19 19 17 16 15 14 12 9 9 6 5 3 5 10 16 15 13 12 14 13 13 11 9 5 6 2 5 8 8 11 14 11 8 10 8 10 10 13 14 14
27 27 24 21 20 18 16 14 12 12 12 8 6 4 3 2 4 4 6 10 14 14 14 13 12 8 9 5 6 6 7 8 9 13 12 10 9 11 11 12 12 13 14 14
27 25 24 22 19 17 15 12 13 12 10 8 6 5 4 5 5 6 7 6 7 7 8 8 6 5 9 13 14 7 6 8 10 13 12 11 10 10 9 10 11 12 13 15
25 25 24 22 20 17 15 12 9 10 9 8 5 7 6 4 4 4 5 3 3 7 8 8 6 10 9 7 7 5 5 9 13 15 13 12 10 11 13 13 12 12 14 16
22 23 22 21 19 17 14 12 9 8 8 7 7 8 8 6 4 3 4 7 7 10 8 5 5 9 9 10 9 8 11 15 17 15 13 10 10 11 12 13 15 17 19 21
18 21 23 21 19 15 13 8 6 6 7 6 6 7 7 7 5 2 4 5 7 6 3 5 7 14 14 14 13 13 14 15 14 12 11 11 12 14 16 18 19 21 23 25
20 22 21 21 18 14 9 6 5 5 4 6 8 11 10 9 8 6 3 3 3 4 2 5 5 10 10 11 11 11 12 11 10 11 10 11 12 15 18 20 23 24 26 27
21 19 20 21 15 7 6 8 6 4 5 7 6 7 15 13 9 6 4 6 5 5 5 4 3 5 8 8 8 11 10 8 8 9 11 14 16 19 22 24 25 28 29 29
22 22 19 11 9 6 7 8 6 6 6 5 5 6 7 13 14 6 4 5 6 5 6 5 7 10 7 6 7 8 6 6 9 12 15 18 20 23 26 28 29 31 30 30
24 15 12 6 6 7 5 9 10 4 2 3 4 3 2 7 7 7 4 6 5 5 5 7 9 8 4 3 3 6 7 9 13 17 19 22 24 28 29 30 30 31 30 31
16 8 6 9 11 11 13 14 13 9 6 2 2 6 6 5 7 5 7 4 5 5 8 9 5 5 3 6 9 9 11 13 17 20 23 25 29 30 30 30 30 28 27 27
13 8 9 13 13 12 10 12 12 9 8 8 7 8 4 7 5 6 7 4 5 7 10 7 4 5 6 7 11 13 14 17 22 25 26 29 30 31 30 27 24 23 22 22
9 12 12 11 15 14 11 12 13 11 11 10 8 7 7 5 5 6 8 13 15 17 13 7 6 7 10 14 16 16 18 23 27 27 29 30 29 28 26 24 22 21 20 19

GFSNW_700_spd_135.txt.gz
Wind_Speed
48 37 35 32 37 38 39 34 31 32 32 29 29 26 22 21 17 14 12 10 10 10 8 4 3 5 5 10 12 13 10 10 14 25 4 6 10 14 10 4 6 11 6 6
42 37 35 37 40 36 37 34 31 33 32 31 29 26 23 21 17 12 9 9 9 9 5 2 6 7 7 9 10 10 12 4 9 12 3 3 13 14 14 17 15 9 2 7
37 40 31 41 35 35 37 36 30 34 34 29 29 31 24 20 15 10 10 9 8 5 3 4 7 5 4 8 11 6 5 8 9 13 18 18 20 14 13 15 13 15 20 25
42 36 40 38 38 41 41 40 30 36 38 28 30 27 22 20 14 13 12 11 7 6 5 6 4 2 6 5 1 3 7 17 16 23 19 15 13 16 20 18 12 10 21 4
35 41 35 36 42 43 44 37 32 35 30 28 28 24 17 17 15 12 14 9 8 5 6 6 5 1 1 1 5 6 5 7 12 17 8 4 6 10 6 8 13 7 1 3
34 32 37 42 42 42 42 37 32 33 31 26 25 22 20 17 14 12 9 8 7 8 5 3 2 5 3 2 4 7 6 11 9 6 8 9 3 8 7 8 9 3 7 11
31 38 44 42 41 41 38 30 27 30 27 26 24 20 15 14 12 9 14 12 10 8 6 4 7 6 5 2 3 10 9 8 6 8 8 1 5 10 10 9 8 9 10 11
41 41 39 38 38 39 36 31 30 31 30 25 20 18 17 16 12 16 14 13 10 5 3 9 7 8 5 5 5 6 8 6 5 3 5 3 3 16 20 12 13 14 14 15
40 38 38 39 38 37 35 27 26 27 26 22 17 18 14 16 19 19 16 14 10 6 6 14 6 4 3 4 4 4 4 4 2 3 3 3 4 17 13 6 8 13 17 17
37 36 35 34 32 31 31 22 21 22 23 23 19 15 19 18 17 16 17 15 10 7 8 8 6 4 3 3 3 4 2 6 7 5 3 4 7 17 11 5 8 17 15 17
36 33 32 32 31 29 27 25 22 20 17 20 17 14 13 14 14 14 15 13 12 8 6 7 6 5 5 4 5 3 4 4 4 5 3 3 17 14 11 11 11 14 14 15
33 34 33 32 28 28 27 24 22 20 13 20 16 14 13 11 9 12 12 10 10 9 7 6 5 6 6 6 4 6 3 5 5 4 7 12 18 13 16 10 11 11 13 14
33 31 30 29 27 25 25 24 22 22 15 18 16 14 12 12 13 13 15 11 9 8 7 6 3 3 6 6 7 8 7 7 5 9 8 12 16 9 12 8 9 11 13 14
31 29 28 26 26 24 23 24 23 20 18 14 16 12 10 10 13 14 13 13 10 9 8 6 6 5 7 7 7 10 8 6 6 9 11 15 11 10 8 8 9 12 15 14
29 28 26 25 22 22 22 23 21 19 16 15 16 12 9 7 7 9 12 12 12 11 10 10 11 10 11 13 12 10 8 6 7 9 12 12 10 8 8 9 10 11 13 13
27 26 25 24 22 20 21 22 19 17 11 17 17 10 8 6 6 7 8 11 13 13 12 13 12 11 11 7 9 8 7 7 8 9 12 11 9 9 9 10 11 12 12 13
27 26 25 23 20 19 19 20 20 18 16 12 14 11 9 9 8 7 7 6 6 8 9 9 9 8 9 14 14 8 8 6 7 10 13 11 11 9 10 12 13 14 15 18
27 25 24 22 20 18 15 15 17 17 15 12 8 11 11 9 9 7 7 5 4 4 6 6 6 10 12 9 6 7 6 6 8 12 14 13 12 11 11 12 14 17 19 22
26 24 23 21 19 17 15 14 16 16 13 10 10 12 11 11 11 10 6 5 6 8 6 6 6 8 9 7 5 5 6 8 12 16 16 13 12 13 13 15 18 20 22 24
24 23 23 20 19 16 15 13 13 13 11 9 12 10 9 12 11 7 4 2 4 4 3 5 8 15 13 14 12 10 10 11 16 17 14 13 13 14 16 18 20 23 25 27
23 25 22 21 20 16 13 9 9 8 7 10 13 12 10 10 10 6 3 2 3 3 2 4 4 10 9 9 10 10 11 13 13 12 11 12 13 16 19 22 24 27 29 31
23 25 22 22 18 8 6 10 8 7 7 12 14 13 12 11 9 5 3 3 3 4 5 5 4 6 7 4 7 9 11 11 9 10 11 13 17 19 21 25 28 29 31 32
23 24 22 14 9 6 8 9 9 10 15 14 11 13 17 11 9 4 4 3 3 5 5 6 10 10 10 8 7 9 9 8 8 10 14 17 20 23 26 29 30 31 32 32
26 16 13 7 8 6 9 17 19 18 16 13 13 12 8 9 10 5 3 5 4 4 5 8 10 9 9 7 5 6 8 9 11 13 16 20 24 26 28 30 31 31 30 29
11 9 6 9 11 19 21 20 19 18 16 12 11 9 6 9 5 5 5 4 4 5 6 10 11 8 8 6 5 7 10 13 14 16 22 26 27 29 30 30 30 28 26 25
8 6 11 16 17 20 21 20 16 16 16 13 9 7 4 6 5 7 6 4 5 4 12 14 17 8 7 7 7 11 15 17 18 20 25 27 29 30 29 28 26 24 21 21
8 11 13 16 14 15 16 16 15 13 12 11 6 5 7 6 5 6 7 11 11 13 17 17 11 7 7 9 14 17 18 18 21 23 26 29 30 29 27 25 23 20 19 20

GFSNW_700_spd_138.txt.gz
Wind_Speed
46 56 54 40 42 35 36 39 35 29 29 32 35 37 24 24 21 20 18 18 17 14 14 12 11 11 10 4 6 7 4 4 5 7 0 4 2 8 12 4 4 8 7 7
44 56 54 41 40 36 34 38 35 30 35 34 33 26 29 25 24 22 20 18 17 15 13 8 10 9 6 4 5 3 6 3 5 1 3 4 6 10 11 15 15 13 5 8
43 51 47 39 37 31 39 39 32 36 40 37 34 31 27 25 22 19 18 14 14 13 12 10 10 8 5 5 5 4 4 5 7 9 10 15 20 16 15 12 11 18 17 26
40 49 50 34 33 37 38 39 28 35 47 42 34 31 29 29 25 21 17 14 13 12 12 11 11 10 5 4 2 4 6 10 14 17 19 17 18 17 13 16 13 11 17 12
39 50 36 31 39 38 39 38 32 35 18 34 31 33 28 27 23 18 20 15 14 11 9 8 15 9 7 3 4 4 7 5 13 18 8 9 9 9 13 13 12 16 14 11
45 35 42 47 38 40 37 37 33 32 23 39 33 33 27 23 22 16 11 13 13 12 12 12 10 9 9 6 3 2 4 7 9 6 6 8 6 8 10 11 15 10 9 14
37 44 44 41 35 35 36 32 26 36 35 35 29 30 24 21 21 15 17 14 13 14 13 9 7 10 8 4 2 3 6 6 5 9 7 2 2 6 15 15 16 18 20 22
41 42 33 33 34 41 35 27 27 35 31 32 29 24 23 23 17 13 14 15 14 14 11 10 9 9 7 7 5 5 7 6 5 4 6 7 6 15 17 15 12 14 13 17
37 34 33 36 41 40 33 30 31 35 28 31 26 25 22 22 21 19 18 18 16 13 12 12 6 6 5 5 4 8 7 6 4 4 4 3 5 17 15 11 11 9 19 18
32 37 40 40 41 43 27 30 25 25 22 28 23 24 24 19 19 21 22 19 16 12 12 14 7 6 6 5 5 6 7 8 10 9 6 6 6 18 13 4 6 16 16 17
40 40 41 38 37 39 33 31 27 21 21 28 23 17 14 18 17 19 22 19 16 13 10 10 7 7 8 6 5 4 5 3 3 4 4 5 9 16 11 13 11 12 13 15
43 43 44 45 40 36 31 25 22 21 16 26 20 19 17 13 10 14 19 14 14 11 9 8 7 7 6 8 4 8 5 5 5 5 7 13 15 17 11 10 9 11 13 15
35 34 34 35 33 29 26 24 22 21 15 25 25 23 18 16 15 16 12 13 11 12 11 8 7 5 6 7 8 9 8 8 9 10 7 13 15 9 8 7 10 11 13 15
37 32 30 31 28 25 24 25 26 21 27 26 24 19 16 13 13 13 13 13 12 11 10 10 7 6 6 7 9 10 9 10 8 10 11 14 11 7 7 8 10 13 15 15
31 28 28 27 27 27 28 26 24 20 16 25 24 17 13 11 10 11 11 13 13 11 10 9 8 8 9 13 15 16 12 10 9 10 11 12 12 9 9 10 10 11 13 14
30 31 29 28 27 27 26 27 24 21 9 23 23 16 12 10 9 10 11 12 11 11 10 10 10 10 10 8 10 8 8 10 10 9 10 12 11 11 11 11 12 13 14 16
31 30 29 27 25 26 28 27 25 23 16 19 19 15 12 11 10 10 10 9 7 5 5 6 8 9 10 14 17 7 8 10 9 8 9 12 13 13 12 13 15 16 18 21
29 28 28 27 25 24 20 21 22 21 20 15 9 12 14 12 11 11 10 8 5 3 3 5 6 8 9 6 3 8 10 9 8 9 12 15 14 13 13 14 16 19 21 23
30 28 27 26 24 20 20 22 22 21 13 9 9 16 15 15 13 12 11 7 6 5 4 5 5 8 6 4 2 4 5 6 8 10 13 14 14 14 14 15 18 21 24 26
29 28 27 25 23 20 20 20 20 19 13 9 13 15 14 17 15 13 8 5 3 1 2 3 6 10 8 10 10 10 9 9 10 12 14 13 12 14 15 18 21 23 26 28
28 27 26 25 23 21 17 12 10 10 9 12 17 13 15 14 13 10 7 3 1 1 1 2 3 3 7 5 7 9 10 10 12 11 10 10 11 14 18 21 24 27 29 30
23 22 21 24 20 10 6 11 11 9 10 17 18 17 15 16 13 6 5 4 3 2 3 3 4 5 7 5 5 5 7 9 10 9 8 10 14 17 21 24 26 28 29 30
22 20 22 15 9 7 8 9 11 9 16 20 21 21 16 14 8 5 4 4 2 2 3 3 6 10 12 10 7 8 8 7 7 8 10 13 16 21 24 26 28 29 30 31
22 15 12 8 6 6 10 15 17 18 20 20 19 17 13 11 11 5 4 4 3 3 4 3 7 10 12 11 9 7 6 7 9 13 15 17 22 26 27 27 28 29 29 29
12 10 6 9 13 14 18 21 22 23 21 18 18 15 9 11 5 6 5 4 4 5 1 6 10 12 15 11 8 5 6 9 13 16 18 21 24 27 29 28 29 29 28 27
7 6 11 15 20 21 21 22 21 21 21 19 15 10 6 6 5 6 5 4 4 3 5 13 14 12 6 7 7 7 11 15 18 18 20 25 27 29 30 29 28 26 25 24
7 11 15 18 19 20 21 20 19 18 18 16 8 7 6 5 5 6 6 5 5 6 9 12 17 9 7 8 10 13 16 17 19 23 26 27 29 30 30 28 26 24 22 22

GFSNW_700_spd_141.txt.gz
Wind_Speed
35 37 38 46 48 41 38 43 36 35 37 34 38 41 29 25 22 21 23 19 20 19 18 17 17 14 11 9 5 3 5 3 3 2 4 2 5 2 2 2 3 7 7 9
40 39 44 47 49 51 46 42 41 29 34 33 36 28 29 28 23 23 21 20 21 19 18 12 16 14 13 9 5 5 3 4 2 4 3 5 6 5 6 9 10 12 5 7
41 41 48 44 46 51 47 45 33 31 33 34 33 28 32 27 27 26 23 21 18 18 18 17 14 15 13 8 7 6 5 6 6 6 3 9 11 12 15 10 8 12 18 30
43 44 49 41 44 51 39 45 35 40 39 41 30 33 24 31 26 25 22 20 20 22 20 19 16 16 13 10 7 6 5 3 8 11 14 16 17 16 12 12 13 12 16 22
46 48 45 40 44 51 48 45 41 38 30 32 34 34 31 29 29 25 26 24 22 19 16 17 18 18 16 8 11 6 2 3 7 6 1 5 6 9 10 12 13 18 20 21
47 44 43 40 49 51 51 42 41 28 27 31 37 40 32 28 28 24 19 20 17 17 14 13 17 15 13 9 8 4 3 1 4 2 4 8 5 8 7 12 15 17 16 18
43 42 39 42 49 51 41 33 33 33 29 33 38 35 28 24 22 23 20 16 18 19 18 17 14 13 12 9 6 3 2 2 2 4 6 1 2 3 13 16 17 15 16 18
42 38 41 45 42 31 33 32 32 30 25 33 36 31 31 29 24 19 19 21 17 22 21 16 15 12 11 9 6 4 2 2 1 0 4 8 9 7 15 16 15 13 15 18
40 38 37 38 41 45 42 29 24 22 28 38 32 30 31 27 27 25 23 23 21 21 20 17 9 8 9 8 6 10 7 3 2 2 2 3 5 5 15 14 7 6 16 15
40 40 38 38 43 33 33 30 28 27 31 34 34 28 31 26 26 28 27 26 23 20 20 16 11 6 11 9 8 7 9 6 10 10 5 6 8 8 15 4 6 15 11 13
39 43 44 35 32 39 37 33 26 30 24 32 29 25 27 26 23 23 27 26 22 21 18 14 8 7 11 8 8 6 8 6 5 5 5 4 4 15 11 12 11 9 9 12
41 41 38 38 47 45 32 27 26 26 19 33 27 23 18 13 14 17 24 18 23 17 13 10 10 8 10 11 6 11 7 8 4 4 4 10 10 13 11 10 8 9 10 13
36 36 43 54 39 33 32 28 29 23 21 32 25 24 22 20 15 18 20 18 19 15 14 11 8 7 10 8 10 9 9 10 9 6 3 9 12 12 9 9 9 11 12 13
47 46 42 38 32 32 30 28 23 23 28 32 27 24 22 19 17 16 17 13 13 15 12 11 9 8 7 7 8 9 10 9 7 7 7 8 9 10 9 9 10 12 12 13
44 44 41 40 34 27 28 25 25 20 24 36 33 24 19 16 15 15 15 14 12 12 11 9 8 7 6 9 11 12 12 13 12 8 7 8 10 10 10 11 11 12 13 14
33 35 34 34 32 30 31 29 21 28 8 33 29 21 17 15 14 14 14 13 13 11 9 8 8 9 8 7 9 9 9 10 11 8 7 8 10 10 11 11 12 13 14 17
36 35 34 32 30 28 29 28 28 24 18 27 25 19 18 15 14 13 13 12 9 8 6 5 5 6 7 11 14 9 7 10 9 8 7 9 11 11 10 11 13 14 17 19
34 31 29 28 29 29 25 24 28 21 25 18 13 17 18 17 16 15 14 13 10 7 4 3 2 2 3 2 2 6 13 11 9 8 9 10 12 10 11 11 13 16 19 21
32 32 30 30 29 26 24 25 27 25 14 9 12 21 20 19 17 16 14 11 8 4 3 3 2 2 2 2 1 3 6 7 8 8 9 11 10 9 9 11 14 18 20 23
34 34 34 32 28 25 26 27 26 18 12 9 14 19 18 20 19 16 11 7 5 3 4 3 4 4 4 7 9 9 9 8 8 9 10 9 8 8 10 14 17 20 23 25
34 34 32 30 28 29 20 14 10 9 8 11 18 13 20 19 14 16 7 6 4 3 3 2 3 4 2 3 4 9 12 11 9 8 8 7 7 9 13 17 21 23 25 26
31 28 31 32 22 13 7 13 12 9 9 17 20 19 19 20 16 8 7 5 4 3 4 3 3 0 3 5 4 4 4 5 7 7 6 7 9 12 15 21 24 26 26 27
25 29 25 19 6 6 9 9 11 10 17 24 24 24 20 18 9 6 5 4 3 4 3 2 1 3 5 6 6 6 6 5 4 5 8 11 13 16 20 24 27 29 29 29
26 16 13 6 6 6 12 15 17 16 19 25 24 22 14 14 10 6 5 5 4 3 4 2 2 5 6 9 8 8 6 5 5 7 11 15 17 20 23 26 29 30 30 30
13 8 6 7 12 12 16 18 17 18 23 23 23 18 12 13 6 6 5 6 4 5 4 1 6 10 10 10 9 8 7 6 9 12 16 17 19 23 26 27 29 31 30 29
12 5 13 15 16 13 16 19 20 24 25 23 19 11 8 7 5 6 6 5 4 6 4 4 7 13 8 3 5 7 9 11 14 16 18 21 24 26 27 28 29 29 28 26
10 14 17 19 18 19 19 19 21 21 22 22 10 7 6 6 5 6 6 4 5 4 3 7 12 9 5 5 7 9 13 16 18 20 23 24 25 27 28 29 28 26 24 22

GFSNW_700_spd_144.txt.gz
Wind_Speed
37 33 34 37 41 43 41 43 45 43 47 41 41 41 32 29 27 26 29 26 21 22 23 22 16 16 9 16 12 9 11 7 8 7 7 8 8 8 8 5 5 10 11 22
39 39 36 40 45 39 45 45 42 38 44 43 41 38 34 28 30 29 27 25 26 22 24 16 16 17 15 13 11 11 13 7 7 6 5 8 10 10 8 6 8 14 13 15
43 41 41 40 41 37 47 48 38 40 45 39 36 40 35 31 31 29 27 25 22 23 23 23 18 19 17 16 14 13 10 9 9 5 4 9 11 11 11 11 13 15 18 24
45 44 44 45 37 37 48 51 38 44 40 44 36 31 25 35 33 30 29 24 23 24 23 22 14 18 19 18 15 12 10 7 10 9 9 11 13 15 16 17 17 18 21 23
48 49 47 44 38 43 46 51 29 39 35 40 33 28 24 26 23 24 31 25 24 21 21 23 23 21 21 14 17 13 12 7 7 7 7 5 7 10 12 12 13 18 18 21
49 51 51 46 42 47 53 56 35 26 35 29 35 35 28 25 26 25 25 23 21 24 21 17 14 17 17 10 14 15 10 8 5 4 7 5 7 10 8 7 11 15 15 14
49 54 52 45 41 44 48 54 47 41 28 34 33 27 31 33 27 23 23 22 20 20 17 16 17 17 15 12 13 11 9 7 5 5 5 5 5 7 7 9 10 11 11 10
49 51 50 43 38 44 47 49 45 39 34 25 30 28 30 25 24 25 22 23 19 19 20 22 15 11 12 12 14 11 8 7 5 4 5 2 4 7 4 7 8 12 7 12
49 50 48 42 44 46 45 51 43 35 30 32 27 33 31 33 33 28 21 20 22 26 27 16 13 10 13 11 10 14 12 9 6 4 2 3 4 7 7 13 6 6 14 12
46 46 43 46 42 43 39 40 31 31 29 22 24 31 36 30 32 30 27 27 26 27 26 13 10 7 13 10 10 13 12 10 9 6 5 5 8 8 8 4 5 13 12 9
48 52 47 48 49 41 35 35 34 26 25 31 36 33 36 36 30 28 31 29 28 30 20 15 8 7 12 9 11 13 12 10 6 7 6 5 4 7 6 12 14 11 9 11
49 42 49 38 47 43 37 34 28 25 25 40 35 29 26 27 27 25 25 24 30 25 18 14 12 8 13 12 9 14 10 10 7 9 6 7 6 9 11 11 11 10 11 13
47 41 38 45 38 37 40 33 37 31 26 34 29 26 25 22 21 20 17 25 27 20 20 16 14 9 11 10 10 10 13 12 10 8 9 10 8 9 10 9 10 10 11 12
41 45 49 44 41 43 38 30 30 27 36 36 31 27 24 23 19 18 16 14 20 16 17 14 11 12 11 9 8 9 12 10 12 11 10 9 7 8 9 8 9 10 11 12
47 48 42 49 52 45 34 30 27 24 30 39 33 24 23 19 19 15 22 18 15 17 16 13 11 10 6 8 9 11 11 12 12 7 8 8 7 7 8 9 9 10 12 13
50 58 53 49 41 36 35 31 23 27 9 39 34 28 23 19 18 18 18 17 15 15 14 11 9 7 7 5 6 9 9 11 14 12 9 7 7 8 9 9 10 10 11 13
50 48 45 39 32 29 29 29 30 26 20 35 32 24 23 20 18 16 16 15 14 12 11 9 7 7 7 9 6 10 8 8 11 10 8 8 8 10 9 9 9 10 11 14
42 40 34 33 35 32 27 26 26 21 27 25 15 20 22 22 20 18 16 15 13 11 8 7 7 5 4 2 3 5 10 10 11 10 10 10 10 11 9 8 9 11 14 17
35 35 34 34 34 31 23 29 24 26 15 11 17 28 23 23 20 19 18 16 12 9 8 7 6 5 3 6 4 3 7 13 12 10 10 10 11 9 7 7 10 14 17 21
36 35 35 33 31 26 27 26 25 14 12 9 23 26 22 26 25 22 15 11 9 6 8 6 5 5 6 8 8 8 8 10 10 10 10 11 8 7 7 9 12 16 19 22
36 37 32 33 27 31 19 15 10 9 8 13 24 18 26 24 22 21 9 8 7 5 6 6 3 5 4 1 4 9 13 14 13 12 11 8 7 7 9 11 15 19 22 24
32 31 35 32 25 12 7 13 10 8 9 21 22 24 25 24 21 9 7 6 6 3 7 4 2 4 4 4 5 5 5 8 10 9 7 6 7 10 13 16 19 22 25 26
31 39 25 18 8 6 10 10 12 11 19 26 25 27 25 21 12 7 5 5 4 5 4 3 5 3 4 5 6 7 6 6 7 6 6 8 11 13 15 18 21 25 26 26
25 16 11 6 7 7 15 19 17 20 23 27 26 25 18 16 9 6 5 6 6 5 4 4 3 3 6 9 8 9 9 8 7 7 8 11 14 15 18 22 24 26 27 27
13 11 7 7 15 18 21 23 15 23 28 27 26 21 14 14 6 5 5 7 5 6 6 8 1 3 6 6 6 5 7 8 7 9 12 14 16 19 22 24 26 27 28 27
12 7 14 19 17 19 20 20 19 25 30 28 22 13 8 6 5 5 5 7 5 8 11 5 3 6 6 4 2 3 7 9 11 13 15 18 21 23 24 26 27 27 26 24
8 15 20 18 16 17 19 20 25 28 29 26 16 7 7 8 5 7 7 7 9 11 5 3 4 5 3 3 4 6 9 13 15 17 20 22 22 23 25 26 26 24 23 23

GFSNW_700_spd_150.txt.gz
Wind_Speed
38 37 40 37 36 36 39 43 51 45 56 48 55 48 44 40 21 28 29 22 24 20 18 18 23 20 16 16 15 14 16 8 15 17 10 11 15 11 14 13 7 12 13 21
40 38 37 39 38 38 41 44 52 50 37 42 56 51 50 30 24 27 28 28 24 22 23 18 22 21 19 18 17 10 14 9 10 14 11 17 15 17 15 14 11 10 7 9
43 40 39 40 40 41 40 49 43 38 56 43 43 49 43 43 31 26 22 22 20 23 23 22 17 21 22 19 15 18 16 10 12 16 8 8 17 15 17 17 15 15 20 19
36 42 41 42 41 42 38 45 34 47 54 59 48 42 34 34 26 30 23 23 26 26 19 22 21 23 22 22 25 23 21 12 13 18 19 13 11 13 18 23 22 21 20 19
39 39 42 41 42 43 39 38 28 49 32 48 44 39 41 35 30 27 28 25 25 23 22 27 25 23 20 18 18 16 16 14 13 16 16 17 18 16 17 20 21 24 24 18
42 41 42 42 41 44 45 38 42 32 35 24 39 43 44 34 25 21 29 27 24 23 21 23 19 24 16 11 14 17 17 14 9 12 15 15 21 19 19 22 22 19 17 16
43 44 45 42 41 47 46 45 41 26 32 32 33 31 36 44 41 33 27 24 26 24 28 24 22 17 16 13 14 13 16 14 13 11 5 12 16 10 9 17 14 13 16 14
45 45 46 46 42 48 48 46 42 33 27 27 28 28 30 30 28 28 19 24 22 23 22 16 14 13 12 12 14 15 16 15 11 9 14 10 8 13 12 11 13 11 17 19
48 47 51 46 46 47 45 46 38 37 33 27 26 33 29 33 28 20 21 21 22 19 27 20 16 11 12 13 11 16 15 16 16 11 13 7 4 11 11 8 12 14 22 19
48 48 50 48 49 46 44 45 40 39 30 26 30 30 29 26 30 23 25 30 25 20 22 18 15 13 16 12 14 22 21 18 17 16 10 7 7 12 10 5 8 13 13 17
49 47 47 50 51 49 45 46 40 37 25 23 22 25 26 28 33 31 29 31 27 28 22 19 13 10 16 11 14 18 22 16 15 15 10 13 12 12 6 13 15 15 17 16
46 43 46 50 48 50 49 49 46 39 34 13 20 27 26 29 25 27 28 23 33 26 19 13 11 9 14 14 12 13 17 20 17 10 12 9 13 14 11 13 19 17 16 13
45 45 47 49 47 50 44 45 46 49 34 25 25 28 28 25 25 19 21 15 20 22 18 16 10 9 10 13 12 11 16 15 22 13 12 13 16 16 17 16 17 16 13 13
47 48 47 47 49 52 54 50 46 43 29 21 28 29 33 28 21 16 19 16 24 18 18 19 14 10 11 8 9 12 13 17 18 22 20 15 19 18 14 15 14 13 13 13
48 47 47 46 49 50 53 47 50 38 30 33 29 31 29 27 19 21 21 18 12 17 17 14 10 10 14 9 11 9 8 9 14 10 15 18 19 17 14 14 13 12 12 14
48 48 48 48 48 48 41 38 36 25 24 34 31 23 21 20 16 15 16 15 16 12 10 12 12 13 9 6 5 6 8 11 9 10 16 13 16 13 13 13 12 12 12 13
51 52 47 43 42 39 42 37 37 30 24 39 27 26 22 20 18 18 23 23 19 14 15 8 6 11 12 9 3 6 8 8 10 14 15 11 9 11 10 12 12 13 13 13
49 48 46 43 45 44 32 34 37 32 30 25 15 26 27 22 21 21 17 19 18 12 12 13 8 7 10 5 8 5 6 10 13 15 10 9 11 8 11 12 13 11 11 13
50 50 56 54 46 39 31 37 34 29 18 14 18 30 23 24 17 20 18 16 16 13 11 8 8 5 4 8 5 8 13 8 10 9 12 9 12 12 13 15 11 11 12 14
59 57 55 45 37 34 37 33 25 18 15 20 20 31 30 32 28 23 15 13 10 8 9 8 12 9 11 8 9 11 10 8 9 11 13 14 12 13 15 14 11 12 14 18
60 54 47 45 42 38 24 21 14 13 11 16 21 25 28 27 25 26 11 10 9 6 7 7 6 7 13 10 12 9 7 9 11 12 11 12 14 16 16 13 11 13 16 19
52 54 52 48 32 21 9 15 14 8 11 17 23 24 25 26 26 12 10 7 8 4 11 10 6 13 11 10 7 7 8 9 9 9 11 13 14 12 10 10 11 15 17 21
52 52 37 23 11 7 11 10 12 14 22 25 31 31 29 26 17 10 7 5 4 6 9 5 8 10 7 7 7 7 7 7 8 7 8 7 7 8 9 12 14 17 21 22
39 24 15 9 7 8 15 15 18 22 24 32 28 27 21 22 15 7 5 7 9 5 5 7 10 10 8 6 7 7 8 9 9 9 7 7 8 11 13 16 19 21 21 23
22 14 8 10 19 26 23 18 17 24 29 30 25 24 25 20 7 6 6 8 4 6 6 13 9 9 5 3 4 5 6 6 6 6 7 8 11 14 16 19 20 21 23 23
12 10 16 23 25 25 23 24 28 28 26 24 23 15 11 7 6 6 4 8 5 10 14 12 12 8 5 4 5 5 4 5 6 7 10 12 14 16 18 19 20 21 21 21
11 16 20 24 29 29 28 25 28 29 25 26 17 8 7 10 6 7 6 8 11 9 12 14 10 6 4 4 5 5 6 7 9 10 12 14 16 17 19 19 19 18 20 20

GFSNW_700_spd_153.txt.gz
Wind_Speed
38 35 34 38 37 34 30 33 40 47 45 53 47 60 53 43 34 31 27 23 22 31 25 29 33 29 15 14 24 23 26 20 12 20 13 9 14 15 15 12 7 8 6 7
41 37 34 34 37 37 33 36 39 44 56 48 39 53 54 49 38 34 28 25 23 24 16 18 24 29 23 24 23 21 23 15 9 10 16 20 19 24 15 17 23 16 4 3
37 44 38 36 35 36 36 39 35 50 46 46 56 54 50 38 38 40 29 29 28 27 29 24 18 20 27 26 24 24 21 19 19 18 16 6 12 15 20 23 19 16 21 25
36 40 45 40 38 41 37 42 36 44 34 58 42 47 37 45 47 33 22 23 30 31 29 26 24 19 28 26 24 24 27 24 25 23 23 14 12 12 15 23 27 22 19 17
37 39 45 47 43 46 43 36 41 42 49 35 54 40 42 37 38 36 41 28 23 25 31 32 30 34 33 35 30 24 24 22 24 23 20 21 20 19 18 18 24 25 20 14
34 36 45 41 44 48 50 39 35 34 45 37 41 47 44 48 32 30 21 33 24 26 24 25 19 29 28 29 27 25 24 22 16 13 17 19 22 25 24 22 22 21 23 20
35 35 43 41 44 50 52 44 37 29 29 40 52 42 37 42 43 34 22 25 33 26 27 26 19 22 18 22 20 18 18 18 15 6 7 8 20 16 15 23 19 23 18 18
37 35 37 34 41 46 46 49 35 34 19 29 31 33 26 33 34 32 37 32 25 31 31 23 15 13 16 17 16 16 19 22 10 7 12 10 2 13 18 17 13 15 16 19
37 36 34 35 44 45 47 40 40 25 31 29 30 31 22 29 34 30 32 31 36 31 26 21 11 11 12 13 9 15 14 16 21 10 6 4 3 19 21 16 14 15 19 22
41 39 36 37 40 44 44 39 34 23 31 24 27 26 31 31 31 35 31 27 27 26 31 25 15 10 22 12 18 25 23 23 21 22 12 6 10 14 14 10 11 14 13 14
47 43 38 40 42 42 45 39 38 25 27 13 21 24 37 34 32 33 33 31 31 34 31 25 15 12 21 13 19 21 24 19 22 19 7 9 14 12 14 12 10 10 13 17
48 46 42 45 45 46 44 39 36 27 22 16 17 28 22 24 26 35 35 29 41 30 23 17 18 10 19 16 17 17 21 24 14 12 13 12 16 16 15 11 11 13 16 16
47 48 45 49 50 47 45 40 32 35 30 13 23 24 25 24 31 27 34 35 29 29 26 22 17 17 16 18 13 16 18 14 20 16 11 16 19 17 15 15 16 17 17 17
50 49 49 49 50 49 45 38 38 20 30 4 13 23 23 32 37 29 18 13 27 28 26 22 21 17 12 16 12 12 13 11 18 25 16 15 17 19 15 14 14 15 16 14
48 50 48 47 47 48 41 34 35 28 23 15 20 26 25 23 27 21 21 18 24 25 24 21 20 17 15 12 10 15 12 11 14 16 18 21 21 21 19 14 13 13 13 14
47 47 45 44 44 44 39 34 31 32 33 26 26 25 27 28 24 25 18 16 15 21 22 19 21 17 15 14 8 2 11 8 9 13 13 13 13 19 17 13 11 11 11 11
44 44 43 45 46 46 44 35 39 33 24 14 21 19 25 19 18 20 19 17 20 17 20 18 18 17 13 11 10 14 13 13 14 17 17 16 16 16 13 9 9 11 12 11
44 45 45 44 43 41 38 30 25 29 26 32 13 28 27 23 25 29 30 29 22 20 18 15 13 17 13 8 12 13 14 13 12 9 9 12 8 4 6 7 10 12 11 12
47 48 45 40 41 36 32 33 33 31 17 15 21 34 35 28 29 29 27 25 20 15 16 14 10 12 5 10 13 14 15 8 8 8 9 8 8 8 10 10 12 14 12 12
53 53 47 40 42 35 44 38 30 18 16 9 29 37 32 34 31 26 20 18 13 14 14 14 11 10 15 14 11 12 9 6 6 7 8 10 10 9 9 10 13 13 12 12
56 55 41 44 48 46 32 24 10 9 8 13 33 35 34 31 32 27 12 12 9 7 10 12 10 13 13 13 13 11 6 6 6 6 8 7 6 8 11 13 11 10 12 14
55 52 52 51 40 24 8 14 13 10 10 25 32 33 31 31 26 14 11 8 8 5 16 10 11 13 12 10 8 8 7 7 5 6 6 6 6 6 5 5 7 10 13 17
49 53 41 26 9 9 12 13 16 13 22 27 32 33 32 29 19 11 7 6 5 11 11 9 10 11 9 8 9 8 7 6 5 5 5 6 6 5 6 9 11 14 17 20
49 26 16 9 8 8 15 18 21 20 25 31 35 36 28 26 17 8 6 8 9 7 9 10 10 11 9 9 8 7 6 6 6 6 7 7 7 7 9 12 15 17 19 20
23 14 6 9 19 23 24 23 19 25 29 34 36 28 29 22 8 6 7 9 5 7 8 9 9 8 10 8 5 5 5 4 5 5 6 6 8 10 12 15 16 18 19 20
15 10 24 27 24 24 23 21 28 31 35 31 25 17 14 7 8 6 5 10 5 11 13 9 9 11 9 5 4 5 4 4 5 5 7 9 11 12 13 15 17 17 17 16
15 28 31 28 29 29 30 31 32 31 30 25 16 8 6 11 7 8 11 10 7 7 9 11 11 9 6 5 3 4 5 6 6 7 9 10 11 13 14 16 16 14 15 16

GFSNW_700_spd_156.txt.gz
Wind_Speed
41 38 40 37 29 28 29 31 30 38 43 42 41 47 51 42 28 42 40 28 30 34 35 32 38 35 26 22 17 35 31 19 21 24 21 18 20 23 24 16 8 11 6 11
46 40 37 35 34 32 29 27 32 34 40 43 48 45 51 47 39 22 36 41 32 30 27 39 42 35 28 21 25 23 31 21 16 5 14 19 26 27 26 27 23 18 8 5
44 45 42 37 35 33 29 32 31 35 37 43 44 52 47 45 48 45 29 34 35 22 24 26 16 36 36 27 24 25 24 29 29 27 12 15 30 25 25 28 24 21 28 25
36 39 41 42 36 33 33 38 31 36 39 42 43 44 43 47 41 32 45 42 25 29 20 20 17 29 35 29 29 30 31 31 31 29 26 21 19 15 19 27 30 25 26 25
37 34 37 41 41 35 37 41 44 35 47 32 40 43 47 49 40 40 31 41 45 31 32 39 30 26 28 33 33 31 33 24 29 30 28 29 30 24 21 20 24 26 23 27
35 37 35 38 44 42 39 45 30 34 41 45 38 43 46 45 37 38 41 32 27 35 31 22 22 20 28 31 34 35 32 27 23 21 24 27 31 39 32 25 24 23 19 20
32 33 37 37 42 48 40 45 51 25 30 39 43 43 44 33 44 40 39 39 33 27 21 27 24 26 24 28 28 24 27 27 22 11 8 6 20 24 21 21 26 24 20 18
34 32 34 36 39 46 50 45 52 42 20 44 32 31 38 39 40 40 35 30 17 25 25 22 19 16 16 13 13 16 19 19 12 9 15 20 15 10 17 17 15 14 16 17
32 32 32 34 33 38 46 43 47 50 35 16 20 34 32 40 32 33 33 35 33 32 23 24 12 11 14 11 9 16 18 19 21 12 5 6 5 20 12 13 16 15 15 15
32 32 31 33 32 38 39 45 41 45 41 20 23 24 31 30 37 36 35 33 31 31 31 25 18 15 18 12 13 21 20 18 23 21 11 9 10 11 9 14 13 14 14 14
38 36 32 34 32 35 34 43 40 37 39 21 22 27 29 37 36 38 40 40 36 39 24 26 13 11 20 16 16 21 25 19 19 20 13 12 13 12 16 15 11 10 11 13
38 42 35 36 34 31 35 38 36 32 33 18 22 28 33 38 35 34 33 33 35 33 31 19 16 13 17 19 17 23 23 25 21 16 11 15 6 15 13 11 10 10 11 15
33 43 40 37 33 33 37 36 32 31 34 29 19 11 31 31 30 32 28 33 32 38 33 23 19 17 19 22 21 19 22 20 17 18 19 16 13 16 15 14 13 14 16 14
37 38 44 38 34 32 34 31 31 26 33 26 16 15 17 23 31 26 24 30 30 27 29 23 23 21 19 18 17 21 20 19 20 22 17 16 17 18 18 17 16 15 15 13
39 39 44 40 36 36 33 31 30 23 23 10 14 11 15 23 28 22 23 18 21 23 23 21 20 19 14 15 18 16 16 16 17 19 20 22 19 18 18 19 17 16 10 9
39 44 46 41 37 38 35 33 31 34 23 9 12 14 23 27 31 28 22 19 21 21 22 21 21 18 18 14 13 18 15 13 11 11 12 12 14 15 16 16 13 11 10 10
47 47 44 38 39 40 40 33 27 26 18 10 20 18 26 28 29 27 20 17 18 19 21 21 25 24 19 14 16 15 14 12 10 10 11 12 14 13 14 12 10 8 8 9
47 44 41 40 39 36 35 25 21 27 21 9 9 25 28 29 29 26 26 22 20 20 20 20 18 19 17 10 16 19 15 12 11 12 11 10 8 7 6 5 5 4 7 8
47 44 38 37 37 35 32 22 24 26 20 12 15 27 26 22 24 25 22 22 20 18 16 15 16 19 11 11 19 18 15 11 8 6 5 6 7 6 5 5 5 7 8 9
49 47 44 39 41 42 33 34 27 25 24 11 22 33 29 33 30 29 22 17 16 12 15 14 10 17 16 13 14 15 12 7 5 4 4 3 5 6 5 6 8 10 10 10
58 53 40 41 38 32 22 14 15 10 11 15 25 32 34 33 30 29 14 12 9 10 13 15 11 18 20 18 15 11 7 5 4 3 2 2 4 7 8 8 8 6 7 9
56 55 47 45 35 17 8 12 10 7 9 18 32 33 35 35 28 18 11 10 9 7 17 12 7 20 21 18 14 11 8 7 5 3 2 2 4 5 5 5 6 7 9 12
49 48 37 22 10 8 9 12 12 11 17 24 36 35 33 31 22 12 8 9 8 8 14 7 11 19 19 17 13 12 9 6 5 4 5 6 6 7 7 7 9 10 13 16
44 20 13 10 7 8 6 17 21 13 17 27 33 31 27 28 17 9 8 9 11 10 9 11 15 17 16 14 14 12 8 8 8 8 8 8 7 8 8 9 12 14 16 17
17 12 9 10 8 13 13 18 22 13 21 30 35 31 27 29 10 9 6 10 8 9 11 13 16 16 14 13 11 10 8 9 10 9 8 8 8 8 10 12 14 15 16 17
14 5 12 18 21 21 20 22 19 25 33 34 29 16 20 16 6 8 6 7 7 7 14 14 14 16 16 13 11 9 9 9 9 8 8 9 9 10 11 12 15 16 15 13
11 19 20 21 23 22 23 20 27 35 36 29 22 9 15 10 7 9 10 7 12 13 14 13 13 13 13 10 8 8 8 8 8 9 9 9 9 10 12 14 15 14 12 12

GFSNW_700_spd_159.txt.gz
Wind_Speed
44 43 43 33 39 33 29 29 29 39 42 42 51 43 48 41 46 41 38 25 30 39 33 29 36 37 37 26 33 38 39 20 19 22 15 19 20 26 30 17 9 14 9 23
38 37 36 43 38 33 32 31 31 38 41 41 43 49 47 48 30 41 39 32 29 26 29 24 29 36 36 36 25 31 38 22 14 8 17 21 27 30 30 30 27 22 8 11
31 33 33 41 42 40 34 32 28 33 37 38 46 44 46 44 48 49 36 27 46 34 32 33 27 34 35 33 30 28 29 31 27 23 13 14 29 35 35 33 25 26 33 30
29 31 32 49 43 40 40 39 38 25 34 41 45 51 39 45 35 34 40 44 38 39 29 30 37 33 37 34 34 34 33 32 34 32 28 26 25 23 27 33 38 31 37 34
33 30 32 40 44 40 39 41 37 41 34 30 38 45 51 43 45 43 37 40 37 42 37 24 32 29 28 36 38 36 36 24 32 31 31 27 30 24 21 24 29 32 34 37
31 32 32 35 39 41 37 40 37 33 30 34 36 44 41 45 45 41 41 37 29 30 35 34 36 35 30 27 21 26 26 37 31 20 24 26 30 33 32 31 30 30 32 33
30 31 34 37 37 43 44 25 41 34 43 22 41 40 36 34 36 38 37 32 32 37 34 24 25 30 36 27 32 30 36 34 28 16 12 7 23 23 20 19 22 26 30 28
27 29 32 36 35 39 47 48 32 41 32 34 26 39 45 41 34 32 28 30 30 30 33 25 22 24 24 27 34 32 35 35 21 14 20 23 19 11 12 15 21 23 23 22
28 29 31 32 34 33 40 48 40 22 41 37 17 30 39 38 35 34 29 31 35 29 33 26 12 11 16 14 17 24 25 27 25 14 7 7 6 6 13 12 21 17 16 15
29 30 32 32 32 36 37 42 43 35 31 49 41 16 29 33 31 27 31 34 33 29 37 18 16 13 20 17 22 25 23 21 25 21 11 12 16 11 8 17 13 13 15 14
28 28 31 32 31 33 35 37 39 44 37 44 47 42 21 17 30 35 32 32 33 39 31 30 14 12 19 16 15 24 29 20 19 19 13 11 9 11 17 14 11 9 10 11
31 29 29 30 30 31 31 33 35 47 40 38 38 47 31 20 27 29 38 38 37 35 33 24 18 13 18 22 17 20 20 22 19 16 11 9 6 14 14 14 12 11 11 10
32 33 31 30 30 36 28 29 30 40 37 37 40 37 41 28 25 37 31 39 34 42 37 26 17 15 19 20 22 20 24 17 18 15 15 16 12 12 13 15 13 11 11 14
27 31 34 34 32 28 27 32 22 30 29 28 35 44 34 24 30 42 48 38 42 36 36 31 24 20 17 22 13 23 20 21 17 19 17 13 12 15 15 18 17 15 14 13
30 27 27 37 31 30 21 20 22 25 26 14 26 47 41 20 31 38 26 37 28 24 29 26 23 25 16 16 16 16 17 15 18 15 10 11 12 15 19 18 16 16 16 14
38 30 30 38 33 28 21 21 26 27 18 17 18 28 21 24 26 40 35 24 30 27 27 21 21 21 16 14 17 17 14 12 13 10 9 7 12 14 16 17 14 12 11 11
35 35 38 39 35 29 27 22 23 23 23 17 13 10 14 24 23 26 26 19 19 22 19 20 22 21 18 14 18 16 15 15 11 9 9 9 11 10 12 13 14 11 10 10
36 39 45 40 34 27 28 19 19 23 24 16 7 9 25 27 27 24 21 24 20 18 16 16 18 18 18 11 16 13 14 14 11 7 8 9 10 13 13 11 10 9 10 10
42 44 40 36 32 30 29 24 14 12 19 3 5 15 27 31 28 27 22 19 15 13 14 13 13 17 12 16 16 15 12 10 8 9 9 9 10 11 11 9 10 11 10 10
44 46 40 33 33 26 25 22 21 15 17 16 11 23 22 27 30 25 17 12 14 9 12 11 16 21 23 14 9 10 12 11 10 10 9 10 10 10 10 10 10 10 11 12
52 46 37 34 33 30 24 12 15 15 13 17 13 23 23 25 28 24 11 8 8 6 10 12 7 17 23 19 14 15 13 11 10 9 9 9 9 10 10 9 10 10 9 8
52 46 38 37 29 19 8 11 10 8 9 9 18 22 26 27 23 11 8 6 8 6 11 10 6 16 18 18 17 14 12 11 10 9 8 7 8 9 9 9 9 8 8 10
43 37 30 19 15 11 9 12 11 10 15 15 24 30 29 24 15 10 7 7 5 4 11 7 10 10 18 19 19 17 14 14 12 10 9 9 9 9 9 9 9 10 11 13
28 20 15 12 6 6 6 16 20 14 13 19 29 31 27 28 16 8 5 7 7 9 7 10 12 12 20 20 18 16 16 14 12 11 9 9 8 9 10 11 11 12 14 15
17 12 9 8 8 11 12 16 21 15 6 16 31 28 20 26 8 7 6 8 7 9 9 7 13 17 21 20 19 17 15 11 10 10 9 10 10 10 10 11 12 13 15 16
9 8 9 16 18 14 11 15 19 16 14 25 27 14 17 15 4 7 7 5 6 6 9 13 18 21 21 20 17 16 14 12 11 11 11 11 11 11 11 12 13 14 16 18
7 11 13 17 16 16 16 19 17 22 27 31 20 7 12 8 6 9 9 8 6 11 14 16 15 16 19 18 15 12 10 9 10 11 11 11 11 12 12 13 14 16 17 15

GFSNW_700_spd_162.txt.gz
Wind_Speed
36 41 41 42 39 37 34 36 38 40 41 44 51 47 52 40 47 40 48 36 31 36 27 32 31 37 37 17 27 30 40 18 22 22 17 25 28 31 33 21 8 12 6 21
40 40 46 40 43 38 45 41 36 36 35 41 47 51 45 52 53 51 44 35 49 39 36 36 31 39 40 34 28 26 31 23 19 13 21 20 27 33 33 31 28 23 7 17
38 40 43 44 43 41 38 47 38 39 40 39 36 51 38 47 43 39 48 31 42 36 38 37 37 40 37 38 34 31 26 29 34 29 20 22 32 40 37 33 23 24 37 38
33 32 40 45 49 44 50 34 26 46 37 42 45 25 50 46 54 32 39 35 35 29 39 34 34 23 27 31 32 35 30 30 32 34 29 24 18 20 26 38 32 32 37 37
30 34 38 35 38 36 40 41 35 40 32 32 37 49 45 44 44 44 47 34 39 47 44 40 20 22 23 22 30 29 37 37 32 30 37 28 26 27 25 22 26 30 33 40
27 27 30 34 32 35 44 40 46 30 26 32 32 39 49 54 47 43 43 33 23 28 34 32 26 25 36 40 24 18 31 34 27 23 23 26 23 37 33 32 32 31 33 36
26 29 34 32 32 33 39 38 47 42 40 36 40 35 39 42 47 51 46 36 38 42 34 27 31 29 26 29 33 26 27 28 25 16 15 7 23 28 22 26 26 25 27 30
23 26 31 33 32 33 32 38 28 32 47 39 25 39 36 35 38 40 37 30 26 28 27 30 26 27 32 32 32 34 31 33 19 9 17 19 21 16 17 17 19 20 23 25
24 24 28 31 32 32 32 33 37 23 18 43 39 36 23 29 36 36 33 26 23 26 24 26 23 15 20 12 21 35 40 39 28 9 7 9 15 15 19 15 28 21 19 16
24 27 26 29 29 28 32 30 34 36 47 24 34 35 35 23 24 30 30 27 31 27 30 25 17 17 20 15 18 21 23 22 28 29 14 13 16 9 9 14 19 9 10 10
20 26 27 25 25 26 26 28 30 35 38 45 28 29 33 25 15 24 23 16 25 27 34 31 13 12 20 15 20 21 28 23 24 24 16 16 14 18 19 17 16 11 8 8
20 20 24 25 25 27 26 29 27 25 29 42 41 38 31 32 31 21 27 23 23 25 29 25 24 13 14 20 12 24 24 28 27 24 20 15 9 13 11 15 12 10 8 8
22 23 23 22 25 27 26 25 27 25 26 32 40 41 31 29 34 34 21 29 32 32 30 24 18 14 25 19 27 21 26 25 25 20 21 17 16 11 12 12 12 10 7 8
23 24 24 23 23 25 25 24 22 24 21 29 35 34 28 27 34 43 42 31 31 33 35 36 29 22 22 24 20 26 27 28 25 24 18 17 15 13 13 13 13 10 10 11
23 25 25 24 23 25 25 26 24 26 29 12 30 39 32 37 36 32 34 46 39 27 37 39 26 24 21 20 21 22 25 24 26 21 15 10 7 7 9 11 12 14 15 13
23 22 24 25 27 25 26 23 26 24 26 29 30 26 29 27 24 34 46 33 35 34 40 36 26 30 24 15 20 17 14 15 12 10 11 11 10 8 8 11 14 14 15 13
26 23 23 22 29 29 25 11 17 23 20 20 14 16 16 20 35 41 46 33 38 29 30 31 25 26 19 15 16 15 14 14 13 10 11 12 11 9 12 14 14 13 12 10
25 24 22 22 27 25 26 14 9 12 18 18 11 14 22 18 18 30 33 29 26 22 18 16 17 21 19 11 16 13 13 15 13 12 11 10 9 13 14 14 14 13 11 10
28 33 25 26 28 29 21 9 7 10 13 8 10 13 3 18 25 27 26 24 18 18 15 18 19 18 10 12 11 13 9 10 12 13 10 9 8 9 10 11 9 9 10 10
32 35 35 32 31 21 19 10 12 11 13 22 15 8 13 24 27 22 11 9 10 8 10 10 12 19 18 12 11 10 12 14 13 11 10 9 9 9 9 10 11 10 10 11
39 42 37 30 25 20 20 9 10 9 8 10 14 7 20 26 18 16 8 6 7 6 9 11 7 17 20 17 11 16 16 16 12 10 8 8 8 10 12 10 10 10 10 11
43 40 34 30 24 11 8 8 8 8 8 5 10 9 16 21 18 7 6 3 5 3 7 9 5 12 15 19 18 20 19 15 12 10 8 7 8 10 11 11 10 10 10 9
41 31 29 18 14 14 7 10 8 8 6 13 16 16 15 17 15 5 4 3 2 2 7 5 9 9 15 20 20 21 19 15 12 9 8 8 8 8 9 10 10 11 10 11
26 23 17 7 7 6 6 11 11 11 6 16 16 12 17 14 9 5 3 5 4 5 5 6 5 11 17 21 21 20 17 14 12 10 10 8 9 10 10 10 11 11 11 13
12 9 9 7 8 10 9 13 15 13 6 15 20 17 13 14 5 6 4 6 5 6 6 6 7 13 18 22 22 20 17 15 12 11 11 11 11 10 10 10 10 11 13 15
11 12 9 13 12 8 13 15 18 17 14 17 13 15 5 8 4 6 5 4 5 4 4 5 11 15 21 21 19 17 15 14 13 13 12 11 10 10 10 11 11 13 14 16
7 10 7 15 16 12 10 15 13 16 19 17 9 5 6 6 5 5 7 5 7 6 7 10 13 15 18 19 18 16 15 12 10 10 11 11 10 11 11 12 13 14 16 18